CLX542 ELLX-EKCH

Flight info

Callsign CLX542
Flight time 1h 12m
Altitude 35000
Route ARCKY N853 ONUNE DCT ROBEG DCT RAMAR DCT MAKEL N851 GESKA Z711 MONAK
Aircraft B748/H-SDE3FGHIM1M2RWXY/LB1

Departure

Time 2026-04-22 17:44
Airport Luxembourg-Findel International Airport (ELLX)

Arrival

Time 2026-04-22 18:56
Airport Copenhagen Kastrup Airport (EKCH)
Time Latitude Longitude Altitude Speed Heading
2026-04-22 17:22 49.63538 6.22688 1222 ft 0 kts 243°
2026-04-22 17:33 49.63568 6.22796 1223 ft 0 kts 155°
2026-04-22 17:37 49.63566 6.22797 1223 ft 3 kts 155°
2026-04-22 17:37 49.63525 6.22828 1220 ft 8 kts 153°
2026-04-22 17:38 49.63480 6.22841 1219 ft 5 kts 201°
2026-04-22 17:38 49.63449 6.22783 1218 ft 10 kts 237°
2026-04-22 17:38 49.63400 6.22658 1217 ft 17 kts 238°
2026-04-22 17:38 49.63357 6.22540 1215 ft 21 kts 240°
2026-04-22 17:39 49.63284 6.22320 1218 ft 25 kts 244°
2026-04-22 17:39 49.63202 6.22058 1219 ft 29 kts 249°
2026-04-22 17:39 49.63006 6.21419 1212 ft 34 kts 245°
2026-04-22 17:40 49.62900 6.21064 1214 ft 38 kts 243°
2026-04-22 17:40 49.62773 6.20706 1211 ft 39 kts 226°
2026-04-22 17:40 49.62587 6.20442 1199 ft 28 kts 230°
2026-04-22 17:40 49.62460 6.20184 1194 ft 28 kts 243°
2026-04-22 17:41 49.62353 6.19892 1193 ft 34 kts 240°
2026-04-22 17:41 49.62226 6.19550 1187 ft 40 kts 239°
2026-04-22 17:41 49.62074 6.19143 1171 ft 47 kts 240°
2026-04-22 17:41 49.61938 6.18806 1170 ft 23 kts 227°
2026-04-22 17:42 49.61902 6.18760 1170 ft 0 kts 217°
2026-04-22 17:42 49.61899 6.18756 1170 ft 3 kts 217°
2026-04-22 17:42 49.61861 6.18721 1170 ft 9 kts 200°
2026-04-22 17:43 49.61793 6.18759 1171 ft 12 kts 127°
2026-04-22 17:43 49.61800 6.18884 1175 ft 19 kts 61°
2026-04-22 17:43 49.61993 6.19407 1176 ft 96 kts 60°
2026-04-22 17:43 49.62453 6.20634 1203 ft 167 kts 62°
2026-04-22 17:44 49.63107 6.22382 1696 ft 204 kts 62°
2026-04-22 17:44 49.63780 6.24192 2832 ft 186 kts 60°
2026-04-22 17:44 49.64438 6.25867 3733 ft 179 kts 60°
2026-04-22 17:44 49.65063 6.27499 4596 ft 174 kts 62°
2026-04-22 17:45 49.65713 6.29233 4751 ft 204 kts 63°
2026-04-22 17:45 49.66442 6.31247 5055 ft 230 kts 63°
2026-04-22 17:45 49.67539 6.33204 5382 ft 258 kts 36°
2026-04-22 17:45 49.69279 6.34075 6049 ft 274 kts
2026-04-22 17:46 49.71189 6.33545 6822 ft 285 kts 336°
2026-04-22 17:46 49.72762 6.31685 7714 ft 290 kts 310°
2026-04-22 17:46 49.73968 6.29182 8537 ft 292 kts 308°
2026-04-22 17:46 49.75271 6.26785 9302 ft 294 kts 316°
2026-04-22 17:47 49.76758 6.24614 10099 ft 296 kts 322°
2026-04-22 17:47 49.78406 6.22576 10396 ft 315 kts 325°
2026-04-22 17:47 49.80215 6.20455 10621 ft 336 kts 325°
2026-04-22 17:47 49.82104 6.18156 10886 ft 354 kts 323°
2026-04-22 17:48 49.84034 6.15649 11188 ft 369 kts 322°
2026-04-22 17:48 49.86168 6.13351 11450 ft 379 kts 337°
2026-04-22 17:48 49.88670 6.12030 11862 ft 383 kts 351°
2026-04-22 17:48 49.91336 6.11729 12496 ft 382 kts
2026-04-22 17:49 49.94004 6.11858 13098 ft 384 kts
2026-04-22 17:49 49.96646 6.12079 13666 ft 386 kts
2026-04-22 17:49 49.99338 6.12314 14247 ft 389 kts
2026-04-22 17:49 50.02054 6.12445 14754 ft 391 kts
2026-04-22 17:50 50.04787 6.12507 15279 ft 394 kts
2026-04-22 17:50 50.07536 6.12544 15771 ft 396 kts
2026-04-22 17:50 50.10303 6.12606 16253 ft 398 kts
2026-04-22 17:50 50.13084 6.12687 16754 ft 400 kts
2026-04-22 17:51 50.15872 6.12776 17220 ft 402 kts
2026-04-22 17:51 50.18678 6.12871 17712 ft 404 kts
2026-04-22 17:51 50.21496 6.12967 18178 ft 406 kts
2026-04-22 17:51 50.24331 6.13063 18624 ft 408 kts
2026-04-22 17:52 50.27178 6.13156 18975 ft 411 kts
2026-04-22 17:52 50.30035 6.13291 19358 ft 412 kts
2026-04-22 17:52 50.32889 6.13759 19747 ft 412 kts 11°
2026-04-22 17:52 50.35711 6.14550 20118 ft 413 kts 13°
2026-04-22 17:53 50.38490 6.15468 20457 ft 414 kts 17°
2026-04-22 17:53 50.41174 6.17054 20816 ft 413 kts 27°
2026-04-22 17:53 50.43727 6.19165 21149 ft 415 kts 30°
2026-04-22 17:53 50.46247 6.21403 21479 ft 417 kts 31°
2026-04-22 17:54 50.48773 6.23672 21834 ft 418 kts 30°
2026-04-22 17:54 50.51357 6.25798 22185 ft 420 kts 27°
2026-04-22 17:54 50.53997 6.27850 22505 ft 422 kts 27°
2026-04-22 17:54 50.56613 6.29960 22822 ft 424 kts 28°
2026-04-22 17:55 50.59224 6.32114 23133 ft 425 kts 28°
2026-04-22 17:55 50.61809 6.34263 23417 ft 427 kts 28°
2026-04-22 17:55 50.64452 6.36467 23744 ft 429 kts 28°
2026-04-22 17:55 50.67079 6.38656 24023 ft 431 kts 28°
2026-04-22 17:56 50.69733 6.40863 24245 ft 432 kts 28°
2026-04-22 17:56 50.72411 6.43087 24477 ft 434 kts 28°
2026-04-22 17:56 50.75099 6.45317 24724 ft 436 kts 28°
2026-04-22 17:56 50.77791 6.47545 24952 ft 437 kts 28°
2026-04-22 17:57 50.80490 6.49782 25178 ft 439 kts 28°
2026-04-22 17:57 50.83197 6.52029 25395 ft 441 kts 28°
2026-04-22 17:57 50.85914 6.54287 25613 ft 442 kts 28°
2026-04-22 17:57 50.88644 6.56560 25825 ft 443 kts 28°
2026-04-22 17:58 50.91383 6.58845 26040 ft 445 kts 28°
2026-04-22 17:58 50.94124 6.61133 26239 ft 446 kts 28°
2026-04-22 17:58 50.96876 6.63437 26449 ft 448 kts 28°
2026-04-22 17:58 50.99635 6.65747 26639 ft 449 kts 28°
2026-04-22 17:59 51.02198 6.68591 26814 ft 452 kts 43°
2026-04-22 17:59 51.04323 6.72264 27024 ft 453 kts 47°
2026-04-22 17:59 51.06347 6.76117 27199 ft 455 kts 51°
2026-04-22 17:59 51.08218 6.80197 27385 ft 457 kts 53°
2026-04-22 18:00 51.09430 6.82946 27500 ft 458 kts 53°
2026-04-22 18:00 51.11941 6.88357 27744 ft 459 kts 51°
2026-04-22 18:00 51.13915 6.92374 27924 ft 460 kts 51°
2026-04-22 18:00 51.15858 6.96447 28070 ft 462 kts 52°
2026-04-22 18:01 51.17782 7.00554 28244 ft 463 kts 52°
2026-04-22 18:01 51.19703 7.04683 28481 ft 463 kts 52°
2026-04-22 18:01 51.21616 7.08802 28713 ft 463 kts 52°
2026-04-22 18:01 51.23533 7.12927 28986 ft 462 kts 52°
2026-04-22 18:02 51.25452 7.17055 29222 ft 462 kts 52°
2026-04-22 18:02 51.27341 7.21114 29494 ft 461 kts 52°
2026-04-22 18:02 51.29256 7.25223 29772 ft 461 kts 52°
2026-04-22 18:02 51.31169 7.29331 30034 ft 460 kts 52°
2026-04-22 18:03 51.33076 7.33434 30329 ft 459 kts 52°
2026-04-22 18:03 51.35005 7.37589 30563 ft 459 kts 52°
2026-04-22 18:03 51.36911 7.41684 30761 ft 458 kts 52°
2026-04-22 18:03 51.38811 7.45697 31015 ft 458 kts 51°
2026-04-22 18:04 51.40774 7.49705 31220 ft 457 kts 50°
2026-04-22 18:04 51.42742 7.53710 31435 ft 457 kts 51°
2026-04-22 18:04 51.44692 7.57747 31650 ft 457 kts 51°
2026-04-22 18:04 51.46632 7.61799 31836 ft 457 kts 51°
2026-04-22 18:05 51.48562 7.65847 32048 ft 457 kts 51°
2026-04-22 18:05 51.50497 7.69913 32262 ft 457 kts 52°
2026-04-22 18:05 51.52427 7.73971 32476 ft 457 kts 52°
2026-04-22 18:05 51.54356 7.78025 32698 ft 457 kts 52°
2026-04-22 18:06 51.56293 7.82098 32915 ft 457 kts 52°
2026-04-22 18:06 51.58203 7.86117 33122 ft 457 kts 52°
2026-04-22 18:06 51.60131 7.90177 33330 ft 456 kts 52°
2026-04-22 18:06 51.62057 7.94235 33540 ft 456 kts 52°
2026-04-22 18:07 51.63987 7.98309 33727 ft 456 kts 52°
2026-04-22 18:07 51.65904 8.02365 33961 ft 456 kts 52°
2026-04-22 18:07 51.67825 8.06434 34167 ft 456 kts 52°
2026-04-22 18:07 51.69746 8.10509 34372 ft 455 kts 52°
2026-04-22 18:08 51.71634 8.14523 34535 ft 456 kts 52°
2026-04-22 18:08 51.73551 8.18604 34698 ft 455 kts 52°
2026-04-22 18:08 51.75462 8.22677 34874 ft 455 kts 52°
2026-04-22 18:08 51.77374 8.26762 35030 ft 455 kts 52°
2026-04-22 18:09 51.79284 8.30847 35202 ft 455 kts 52°
2026-04-22 18:09 51.81192 8.34935 35354 ft 453 kts 53°
2026-04-22 18:09 51.83089 8.39007 35347 ft 453 kts 53°
2026-04-22 18:10 51.86869 8.47139 35346 ft 453 kts 53°
2026-04-22 18:10 51.90627 8.55243 35350 ft 452 kts 53°
2026-04-22 18:11 51.95092 8.62383 35358 ft 454 kts 36°
2026-04-22 18:11 52.00408 8.67937 35353 ft 455 kts 33°
2026-04-22 18:12 52.05579 8.73824 35346 ft 454 kts 38°
2026-04-22 18:12 52.09821 8.78855 35339 ft 454 kts 36°
2026-04-22 18:13 52.15882 8.85730 35336 ft 454 kts 37°
2026-04-22 18:13 52.21022 8.91739 35344 ft 454 kts 37°
2026-04-22 18:14 52.26156 8.97766 35340 ft 454 kts 38°
2026-04-22 18:14 52.31288 9.03784 35338 ft 454 kts 38°
2026-04-22 18:15 52.36430 9.09821 35340 ft 454 kts 38°
2026-04-22 18:15 52.41521 9.15815 35339 ft 453 kts 38°
2026-04-22 18:16 52.46650 9.21869 35345 ft 453 kts 38°
2026-04-22 18:16 52.51755 9.27914 35344 ft 453 kts 39°
2026-04-22 18:17 52.56863 9.33979 35338 ft 452 kts 39°
2026-04-22 18:17 52.61962 9.40037 35337 ft 451 kts 39°
2026-04-22 18:18 52.67045 9.46101 35336 ft 451 kts 39°
2026-04-22 18:18 52.72070 9.52127 35332 ft 450 kts 40°
2026-04-22 18:19 52.77158 9.58251 35339 ft 450 kts 39°
2026-04-22 18:19 52.82211 9.64359 35328 ft 449 kts 40°
2026-04-22 18:20 52.87246 9.70464 35331 ft 448 kts 40°
2026-04-22 18:20 52.92244 9.76531 35327 ft 447 kts 40°
2026-04-22 18:21 52.97265 9.82636 35326 ft 447 kts 41°
2026-04-22 18:21 53.02272 9.88740 35320 ft 446 kts 41°
2026-04-22 18:22 53.07263 9.94842 35328 ft 445 kts 41°
2026-04-22 18:22 53.12212 10.00911 35319 ft 444 kts 41°
2026-04-22 18:23 53.17177 10.07020 35323 ft 443 kts 42°
2026-04-22 18:23 53.22130 10.13138 35327 ft 442 kts 42°
2026-04-22 18:24 53.29526 10.22305 35323 ft 440 kts 43°
2026-04-22 18:25 53.36061 10.30439 35320 ft 439 kts 43°
2026-04-22 18:25 53.40966 10.36563 35317 ft 438 kts 43°
2026-04-22 18:26 53.48283 10.45736 35321 ft 437 kts 43°
2026-04-22 18:26 53.53107 10.51802 35238 ft 429 kts 43°
2026-04-22 18:27 53.55474 10.54767 34904 ft 419 kts 44°
2026-04-22 18:27 53.57782 10.57656 34596 ft 409 kts 44°
2026-04-22 18:27 53.60045 10.60495 34222 ft 401 kts 45°
2026-04-22 18:27 53.62271 10.63305 33471 ft 400 kts 45°
2026-04-22 18:28 53.64495 10.66142 32590 ft 403 kts 45°
2026-04-22 18:28 53.66740 10.69015 31670 ft 407 kts 44°
2026-04-22 18:28 53.69012 10.71927 30773 ft 411 kts 44°
2026-04-22 18:28 53.71303 10.74863 29703 ft 416 kts 44°
2026-04-22 18:29 53.73622 10.77840 28569 ft 421 kts 43°
2026-04-22 18:29 53.75991 10.80856 28329 ft 427 kts 41°
2026-04-22 18:29 53.80765 10.86870 28299 ft 427 kts 42°
2026-04-22 18:30 53.87846 10.95977 28292 ft 425 kts 43°
2026-04-22 18:31 53.92551 11.02064 28288 ft 425 kts 43°
2026-04-22 18:31 53.97216 11.08104 28289 ft 424 kts 42°
2026-04-22 18:32 54.01861 11.14117 28079 ft 409 kts 42°
2026-04-22 18:32 54.04090 11.17003 27755 ft 397 kts 42°
2026-04-22 18:32 54.06251 11.19807 27441 ft 386 kts 42°
2026-04-22 18:32 54.08357 11.22549 27075 ft 377 kts 42°
2026-04-22 18:33 54.10430 11.25260 26520 ft 375 kts 41°
2026-04-22 18:33 54.12489 11.27966 25962 ft 373 kts 41°
2026-04-22 18:33 54.14536 11.30659 25393 ft 372 kts 40°
2026-04-22 18:33 54.16599 11.33371 24852 ft 371 kts 40°
2026-04-22 18:34 54.18642 11.36052 24322 ft 370 kts 39°
2026-04-22 18:34 54.20697 11.38697 23789 ft 369 kts 38°
2026-04-22 18:34 54.22733 11.41356 23238 ft 366 kts 39°
2026-04-22 18:34 54.24713 11.43964 22721 ft 363 kts 39°
2026-04-22 18:35 54.26701 11.46595 22203 ft 360 kts 39°
2026-04-22 18:35 54.28654 11.49199 21436 ft 351 kts 39°
2026-04-22 18:35 54.30582 11.51772 20391 ft 349 kts 37°
2026-04-22 18:35 54.32650 11.53884 19450 ft 343 kts 27°
2026-04-22 18:36 54.34797 11.55611 18528 ft 338 kts 25°
2026-04-22 18:36 54.36928 11.57251 17497 ft 333 kts 24°
2026-04-22 18:36 54.39030 11.58870 16509 ft 328 kts 24°
2026-04-22 18:36 54.41105 11.60478 15554 ft 324 kts 24°
2026-04-22 18:37 54.43142 11.62065 14597 ft 319 kts 24°
2026-04-22 18:37 54.45150 11.63646 13644 ft 315 kts 24°
2026-04-22 18:37 54.47126 11.65218 12646 ft 311 kts 24°
2026-04-22 18:37 54.49046 11.66768 11684 ft 307 kts 24°
2026-04-22 18:38 54.50964 11.68339 10737 ft 303 kts 24°
2026-04-22 18:38 54.52850 11.69906 9780 ft 299 kts 24°
2026-04-22 18:38 54.54707 11.71420 9243 ft 282 kts 23°
2026-04-22 18:39 54.58248 11.74223 9276 ft 290 kts 22°
2026-04-22 18:39 54.60094 11.75667 9265 ft 291 kts 22°
2026-04-22 18:39 54.61936 11.77106 9255 ft 291 kts 22°
2026-04-22 18:39 54.63782 11.78547 9259 ft 291 kts 22°
2026-04-22 18:40 54.65625 11.79988 9253 ft 290 kts 22°
2026-04-22 18:40 54.67464 11.81430 9258 ft 290 kts 22°
2026-04-22 18:40 54.69306 11.82874 9260 ft 290 kts 22°
2026-04-22 18:40 54.71145 11.84320 9256 ft 290 kts 22°
2026-04-22 18:41 54.72951 11.85739 9254 ft 289 kts 22°
2026-04-22 18:41 54.74783 11.87180 9255 ft 289 kts 22°
2026-04-22 18:41 54.76619 11.88627 9248 ft 289 kts 22°
2026-04-22 18:41 54.78453 11.90078 9249 ft 289 kts 22°
2026-04-22 18:42 54.80287 11.91528 9247 ft 289 kts 22°
2026-04-22 18:42 54.82117 11.92979 9247 ft 289 kts 22°
2026-04-22 18:42 54.83944 11.94427 9248 ft 289 kts 22°
2026-04-22 18:42 54.85772 11.95879 9250 ft 289 kts 22°
2026-04-22 18:43 54.87599 11.97332 9246 ft 289 kts 22°
2026-04-22 18:43 54.89423 11.98764 9248 ft 288 kts 22°
2026-04-22 18:43 54.91258 12.00178 9248 ft 288 kts 22°
2026-04-22 18:43 54.93063 12.01561 9248 ft 288 kts 22°
2026-04-22 18:44 54.94903 12.02967 9235 ft 286 kts 22°
2026-04-22 18:44 54.96750 12.04378 9249 ft 290 kts 21°
2026-04-22 18:44 54.98597 12.05790 9254 ft 290 kts 21°
2026-04-22 18:44 55.00439 12.07201 9270 ft 289 kts 21°
2026-04-22 18:45 55.02285 12.08616 9256 ft 289 kts 21°
2026-04-22 18:45 55.04120 12.10028 9252 ft 288 kts 21°
2026-04-22 18:45 55.05953 12.11441 9271 ft 288 kts 22°
2026-04-22 18:45 55.07789 12.12857 9255 ft 288 kts 21°
2026-04-22 18:46 55.09624 12.14277 9252 ft 288 kts 22°
2026-04-22 18:46 55.11459 12.15696 9052 ft 288 kts 21°
2026-04-22 18:46 55.13285 12.17093 9058 ft 286 kts 21°
2026-04-22 18:46 55.15096 12.18455 9059 ft 287 kts 21°
2026-04-22 18:47 55.16950 12.19842 9056 ft 286 kts 21°
2026-04-22 18:47 55.18782 12.21209 9053 ft 286 kts 21°
2026-04-22 18:47 55.20591 12.22561 9056 ft 287 kts 21°
2026-04-22 18:47 55.22434 12.23915 8935 ft 287 kts 20°
2026-04-22 18:48 55.24325 12.25241 7879 ft 288 kts 19°
2026-04-22 18:48 55.26071 12.26463 6913 ft 258 kts 19°
2026-04-22 18:48 55.27702 12.27625 5917 ft 252 kts 19°
2026-04-22 18:48 55.29313 12.28789 4908 ft 248 kts 19°
2026-04-22 18:49 55.30901 12.29953 3659 ft 247 kts 18°
2026-04-22 18:49 55.32470 12.31139 2907 ft 243 kts 19°
2026-04-22 18:49 55.34008 12.32321 3062 ft 245 kts 19°
2026-04-22 18:49 55.35576 12.33523 3055 ft 247 kts 19°
2026-04-22 18:50 55.37152 12.34735 3055 ft 247 kts 18°
2026-04-22 18:50 55.38744 12.35904 3053 ft 248 kts 18°
2026-04-22 18:50 55.40341 12.37039 3041 ft 247 kts 17°
2026-04-22 18:50 55.41852 12.38108 3058 ft 218 kts 17°
2026-04-22 18:51 55.43210 12.39102 3031 ft 205 kts 17°
2026-04-22 18:51 55.44500 12.40065 3034 ft 199 kts 18°
2026-04-22 18:51 55.45700 12.41306 3063 ft 200 kts 27°
2026-04-22 18:51 55.46849 12.42704 3043 ft 201 kts 29°
2026-04-22 18:52 55.47982 12.44152 3059 ft 201 kts 30°
2026-04-22 18:52 55.49046 12.45627 3030 ft 186 kts 33°
2026-04-22 18:52 55.49971 12.47130 2769 ft 176 kts 37°
2026-04-22 18:52 55.50794 12.48566 2528 ft 157 kts 35°
2026-04-22 18:53 55.51576 12.49842 2343 ft 150 kts 32°
2026-04-22 18:53 55.52345 12.51072 2142 ft 149 kts 33°
2026-04-22 18:53 55.53097 12.52303 1932 ft 147 kts 33°
2026-04-22 18:53 55.53864 12.53483 1745 ft 148 kts 31°
2026-04-22 18:54 55.54679 12.54662 1674 ft 154 kts 31°
2026-04-22 18:54 55.55523 12.55895 1494 ft 162 kts 34°
2026-04-22 18:54 55.56309 12.57207 1150 ft 151 kts 34°
2026-04-22 18:54 55.57082 12.58354 906 ft 144 kts 32°
2026-04-22 18:55 55.57860 12.59537 695 ft 150 kts 36°
2026-04-22 18:55 55.58653 12.60761 492 ft 152 kts 36°
2026-04-22 18:55 55.59453 12.61998 302 ft 154 kts 36°
2026-04-22 18:55 55.60264 12.63247 67 ft 152 kts 37°
2026-04-22 18:56 55.60977 12.64327 26 ft 97 kts 42°
2026-04-22 18:56 55.61247 12.64750 28 ft 33 kts 41°
2026-04-22 18:56 55.61425 12.65018 27 ft 34 kts 39°
2026-04-22 18:56 55.61609 12.65010 28 ft 28 kts 325°
2026-04-22 18:57 55.61742 12.64783 30 ft 18 kts 330°
2026-04-22 18:57 55.61762 12.64774 31 ft 0 kts 353°
2026-04-22 18:58 55.61806 12.64780 29 ft 19 kts
2026-04-22 18:58 55.61869 12.64809 26 ft 0 kts 19°
2026-04-22 18:59 55.61888 12.64826 26 ft 7 kts 27°
2026-04-22 18:59 55.61954 12.64889 27 ft 13 kts 30°
2026-04-22 19:00 55.62043 12.64989 27 ft 18 kts 33°
2026-04-22 19:00 55.62110 12.65065 29 ft 0 kts 33°
2026-04-22 19:00 55.62112 12.65067 29 ft 0 kts 33°
2026-04-22 19:00 55.62134 12.65093 30 ft 10 kts 33°
2026-04-22 19:01 55.62246 12.65191 29 ft 22 kts 28°
2026-04-22 19:01 55.62311 12.65349 27 ft 3 kts 77°
2026-04-22 19:01 55.62298 12.65462 29 ft 16 kts 97°
2026-04-22 19:01 55.62298 12.65763 26 ft 26 kts 88°
2026-04-22 19:02 55.62312 12.66070 23 ft 12 kts 116°
2026-04-22 19:02 55.62302 12.66092 21 ft 0 kts 130°
2026-04-22 19:03 55.62302 12.66094 21 ft 0 kts 130°
2026-04-22 19:04 55.62293 12.66108 23 ft 10 kts 139°
2026-04-22 19:04 55.62062 12.66277 30 ft 48 kts 161°
2026-04-22 19:04 55.61830 12.66460 27 ft 9 kts 113°
2026-04-22 19:05 55.61846 12.66562 26 ft 16 kts 72°
2026-04-22 19:05 55.61880 12.66877 25 ft 26 kts 91°
2026-04-22 19:05 55.61895 12.67114 24 ft 0 kts 79°